Location: Clyde
(45.1830°S, 169.3170°E)
Time: 17:07:05
(UTC+12:00)

SWAS - Pass Details

Date: 24 January 2019
Orbit: 578 x 594 km, 69.9° (Epoch: 17 April)

Event Time Altitude Azimuth Distance (km) Brightness Sun altitude
Rises 21:53:22 0° 335° (NNW) 2,833 7.8 -5.5°
Reaches altitude 10° 21:55:35 10° 336° (NNW) 1,939 7.0 -5.8°
Maximum altitude 21:59:57 86° 65° (ENE) 611 4.5 -6.4°
Drops below altitude 10° 22:04:22 10° 152° (SSE) 1,962 7.3 -7.1°
Sets 22:06:38 0° 152° (SSE) 2,870 8.1 -7.4°
